CAPE
0 0 0 0 0 1 20 3 0 0 17 29 23 6 0 0 11 0 45 74 33 25 32 216 592 227 103 109 120 114 124 28 1 0 0 263 614 463 677 1148 1333 920 459 635 889 947 854 744 707
0 0 0 0 0 3 0 0 0 2 15 0 0 0 0 0 177 247 96 55 15 0 0 219 865 546 290 288 406 506 398 401 408 506 0 30 378 482 569 945 638 501 401 536 643 607 460 378 334
0 0 0 0 0 0 9 0 0 54 217 25 0 8 0 0 211 18 81 22 0 0 11 251 855 641 295 364 320 173 36 10 9 180 542 39 155 702 841 1114 957 345 331 342 465 473 516 596 470
0 0 0 0 0 0 1 0 0 0 0 37 69 45 0 0 0 201 62 0 0 0 19 1032 1190 759 418 210 174 100 46 11 19 3 9 206 41 293 795 947 971 252 162 268 409 389 358 436 364
0 0 0 0 0 0 1 0 0 32 88 75 64 66 0 18 176 111 0 0 0 0 133 607 1069 799 474 243 205 138 53 34 26 73 33 4 96 87 413 1058 391 140 82 203 321 163 86 132 348
0 0 0 0 0 0 0 0 0 0 0 44 61 0 0 84 41 0 0 0 0 13 121 692 923 1042 707 332 244 126 98 49 18 65 100 64 39 116 180 408 272 135 72 23 60 32 103 47 290
0 0 0 0 0 1 0 0 0 0 6 60 44 0 0 0 0 0 0 0 0 22 133 324 420 449 496 456 298 116 109 187 134 231 157 115 106 75 168 473 292 124 118 3 0 35 254 297 415
0 0 0 0 0 7 0 0 0 6 52 88 34 0 0 0 0 0 0 0 0 3 90 144 331 306 315 235 330 167 120 213 278 120 95 155 143 145 141 371 474 133 145 121 80 142 241 435 573
0 0 0 2 0 0 0 0 0 14 63 192 141 0 0 0 0 0 0 0 0 0 97 37 171 188 192 166 216 355 173 246 286 128 146 245 0 5 56 152 151 255 276 385 401 394 420 545 743
0 0 0 1 6 8 4 0 0 237 208 73 0 0 0 0 0 0 0 0 0 0 0 26 131 66 105 301 156 63 3 1 47 32 4 0 0 0 0 0 442 623 576 586 646 652 682 690 3
0 0 0 0 0 0 0 0 26 150 235 66 11 0 0 0 0 0 0 0 0 0 0 0 76 91 23 156 67 0 0 0 0 0 0 0 0 0 0 0 95 24 142 2 59 74 33 0 0
0 0 0 0 0 0 0 4 110 65 163 84 9 0 0 0 0 0 0 0 0 0 0 0 1 46 0 10 9 0 0 0 0 0 0 0 0 0 0 0 0 0 0 0 0 0 0 0 0
0 0 0 0 0 0 0 80 376 106 72 29 0 0 0 0 0 0 0 0 0 0 0 0 0 0 0 0 0 0 0 0 0 0 0 0 0 0 0 0 0 0 0 0 0 0 0 0 0
0 0 0 0 0 0 0 303 270 160 75 32 15 7 1 0 0 0 0 0 0 0 0 0 0 0 0 0 0 0 0 0 0 0 0 0 0 0 0 0 0 0 0 0 0 0 0 0 0
0 0 0 0 0 0 0 46 175 298 187 71 36 55 44 14 0 0 0 0 0 0 0 0 0 0 0 0 0 0 0 0 0 0 0 16 0 124 437 95 42 0 0 0 0 0 0 0 0
0 0 0 0 0 0 0 0 65 356 273 177 104 68 49 8 0 0 0 0 0 0 0 0 0 0 0 0 7 0 0 0 0 0 0 131 20 10 39 125 158 153 106 174 446 190 27 3 0
0 0 0 0 0 0 0 17 104 115 260 240 208 181 116 40 0 0 0 0 0 0 0 0 0 0 0 0 0 0 0 0 14 0 0 1 165 107 8 182 228 132 251 631 473 459 177 183 116
0 0 0 0 0 0 0 6 226 116 180 218 176 133 121 57 0 0 0 0 0 0 0 0 0 0 0 0 0 3 24 0 0 0 0 0 47 415 354 83 134 297 444 417 368 535 436 389 552
0 0 0 0 0 0 0 0 10 153 155 152 97 44 57 26 0 0 0 0 0 0 0 0 0 0 0 14 50 0 0 0 0 0 0 0 0 140 309 427 293 170 248 278 227 281 505 543 536
0 0 0 0 0 0 0 0 0 0 55 108 97 50 31 0 0 0 0 0 0 0 0 0 0 0 4 6 16 27 5 1 8 0 16 12 4 0 182 205 440 530 553 578 684 402 501 476 371
0 0 0 0 0 0 0 0 0 23 101 238 183 82 9 0 0 0 0 0 0 0 0 0 0 0 177 39 43 84 214 423 476 314 337 328 362 78 36 206 327 369 414 518 706 673 566 597 243
0 0 0 0 0 0 0 0 0 83 318 315 174 181 101 53 0 0 0 22 0 4 0 0 0 15 81 238 341 448 344 428 514 1181 797 733 716 856 335 183 541 784 933 607 543 285 180 174 210
0 0 0 0 0 0 0 0 0 25 345 269 250 1080 916 433 994 1182 1196 1061 1285 533 899 1322 1455 1671 1963 670 813 1008 1151 1409 1651 1102 753 589 582 565 686 654 603 471 330 277 189 99 23 31 80
0 0 0 0 0 0 0 0 0 49 478 116 392 1366 1160 1120 1031 934 1101 1114 1062 1064 951 880 876 899 810 851 1342 1597 1612 1077 1038 820 565 459 256 76 28 39 23 31 32 1 0 0 0 0 0
0 0 0 0 0 0 0 0 0 0 154 311 981 1213 998 953 731 614 647 750 720 782 896 735 610 542 630 676 701 656 568 377 279 268 291 237 137 16 2 1 1 1 0 0 0 0 0 0 0
0 0 0 0 0 0 0 0 0 109 203 912 938 889 780 687 617 512 416 401 429 475 576 470 355 328 324 446 363 287 313 365 285 205 61 27 5 2 0 0 0 0 0 0 0 0 0 0 0
0 0 0 0 0 0 0 449 1129 1002 987 829 650 615 674 543 319 199 204 220 298 313 268 277 298 315 215 62 28 30 42 46 22 0 0 0 0 0 0 0 0 0 0 0 0 0 0 0 0
0 0 0 0 0 0 0 178 740 986 794 618 475 413 390 297 225 224 231 324 270 166 214 242 101 3 0 0 0 1 0 0 0 0 0 0 0 0 0 0 0 0 0 0 0 0 0 0 0
0 0 0 0 0 0 0 314 434 669 540 497 469 446 413 344 374 373 133 70 42 15 47 99 22 0 0 0 0 0 0 0 0 0 0 0 0 0 0 0 0 0 0 0 0 0 0 0 0
0 0 0 0 0 0 0 34 89 358 221 462 471 342 511 693 388 271 52 48 21 4 20 81 0 0 0 0 0 0 0 0 0 0 0 0 0 0 0 0 0 0 0 0 0 0 0 0 0
CIN
-0 -0 -0 -0 -0 -22 -77 -15 -0 -0 -99 -128 -92 -114 -0 -0 -58 -0 -342 -345 -311 -406 -343 -132 -82 -127 -165 -175 -162 -134 -120 -236 -23 -0 -0 -24 -7 -13 -1 -0 -0 -0 -2 -1 -2 -1 -10 -19 -10
-0 -0 -0 -0 -0 -66 -0 -0 -0 -24 -233 -0 -0 -0 -0 -0 -330 -309 -344 -351 -442 -0 -0 -151 -60 -81 -124 -121 -75 -44 -43 -37 -24 -11 -7 -104 -34 -21 -16 -0 -3 -0 -0 -2 -8 -19 -30 -45 -40
-0 -0 -0 -0 -0 -9 -31 -0 -0 -110 -136 -41 -0 -100 -0 -0 -299 -101 -383 -481 -0 -0 -299 -162 -66 -83 -139 -112 -93 -141 -240 -319 -319 -110 -11 -113 -97 -13 -4 -0 -0 -23 -9 -9 -13 -24 -37 -44 -42
-0 -0 -0 -0 -0 -0 -43 -0 -0 -0 -0 -250 -220 -258 -0 -0 -0 -334 -444 -1 -0 -0 -325 -74 -54 -89 -114 -151 -164 -223 -271 -293 -288 -350 -264 -95 -173 -73 -8 -3 -0 -32 -37 -9 -12 -36 -56 -61 -62
-0 -0 -0 -0 -0 -0 -68 -0 -0 -148 -187 -239 -263 -297 -0 -394 -371 -440 -0 -0 -0 -0 -336 -109 -58 -81 -106 -171 -180 -243 -303 -301 -297 -221 -246 -104 -154 -133 -26 -0 -16 -58 -74 -34 -40 -69 -95 -101 -84
-0 -0 -0 -0 -0 -0 -0 -0 -0 -0 -0 -307 -354 -0 -0 -471 -509 -0 -0 -0 -0 -460 -406 -110 -73 -69 -86 -148 -187 -276 -286 -320 -369 -247 -201 -215 -224 -144 -83 -14 -31 -67 -97 -148 -123 -162 -118 -158 -89
-0 -0 -0 -0 -0 -73 -16 -0 -0 -0 -190 -320 -382 -0 -0 -0 -0 -0 -0 -0 -0 -629 -458 -265 -197 -156 -119 -113 -155 -279 -283 -215 -232 -170 -186 -198 -192 -184 -116 -18 -49 -99 -99 -99 -0 -167 -88 -82 -85
-0 -0 -6 -4 -0 -146 -0 -0 -0 -280 -224 -355 -444 -0 -0 -0 -0 -0 -0 -0 -0 -309 -551 -480 -280 -257 -211 -243 -183 -262 -297 -225 -195 -258 -266 -212 -199 -180 -166 -74 -41 -130 -116 -123 -140 -134 -108 -88 -84
-0 -0 -0 -131 -0 -0 -0 -0 -0 -66 -302 -258 -359 -0 -0 -0 -0 -0 -0 -0 -0 -0 -595 -649 -462 -407 -364 -359 -297 -217 -279 -238 -217 -281 -259 -228 -0 -168 -161 -196 -170 -122 -119 -90 -89 -112 -110 -110 -102
-0 -0 -0 -178 -303 -185 -71 -0 -0 -181 -236 -365 -0 -0 -0 -0 -0 -0 -0 -0 -0 -0 -0 -681 -539 -569 -499 -328 -393 -456 -290 -24 -407 -407 -163 -0 -0 -0 -0 -0 -148 -104 -109 -102 -90 -105 -119 -132 -74
-0 -0 -0 -0 -0 -0 -0 -0 -220 -246 -262 -386 -535 -0 -0 -0 -0 -0 -0 -0 -0 -0 -0 -0 -633 -583 -650 -456 -533 -0 -0 -0 -0 -0 -0 -0 -0 -0 -0 -0 -306 -364 -276 -50 -25 -317 -312 -0 -0
-0 -0 -0 -0 -0 -0 -0 -15 -167 -254 -267 -417 -555 -0 -0 -0 -0 -0 -0 -0 -0 -0 -0 -0 -170 -650 -0 -645 -397 -0 -0 -0 -0 -0 -0 -0 -0 -0 -0 -0 -0 -0 -0 -0 -0 -0 -0 -0 -0
-0 -0 -0 -0 -0 -0 -0 -103 -120 -253 -374 -488 -0 -0 -0 -0 -0 -0 -0 -0 -0 -0 -0 -0 -0 -0 -0 -0 -0 -0 -0 -0 -0 -0 -0 -0 -0 -0 -0 -0 -0 -0 -0 -0 -0 -0 -0 -0 -0
-0 -0 -0 -0 -0 -0 -0 -126 -128 -259 -395 -496 -572 -468 -428 -0 -0 -0 -0 -0 -0 -0 -0 -0 -0 -0 -0 -0 -0 -0 -0 -0 -0 -0 -0 -0 -0 -0 -0 -0 -0 -0 -0 -0 -0 -0 -0 -0 -0
-0 -0 -0 -0 -0 -0 -0 -238 -202 -253 -336 -386 -448 -490 -543 -637 -0 -0 -0 -0 -0 -0 -0 -0 -0 -0 -0 -0 -0 -0 -0 -0 -0 -0 -0 -565 -43 -436 -306 -428 -444 -0 -0 -0 -0 -0 -0 -0 -0
-0 -0 -0 -0 -0 -0 -0 -0 -277 -221 -261 -291 -357 -405 -494 -626 -0 -0 -0 -0 -0 -0 -0 -0 -0 -0 -0 -0 -750 -0 -0 -0 -0 -0 -0 -506 -534 -563 -490 -392 -350 -335 -356 -334 -216 -266 -319 -53 -16
-0 -0 -0 -0 -0 -0 -0 -54 -208 -245 -236 -258 -280 -324 -425 -581 -0 -0 -0 -0 -0 -0 -0 -0 -0 -0 -0 -0 -0 -0 -0 -0 -632 -0 -0 -61 -460 -467 -552 -410 -364 -382 -313 -193 -224 -188 -257 -173 -170
-0 -0 -0 -0 -0 -0 -0 -182 -130 -211 -240 -276 -332 -336 -419 -498 -0 -0 -0 -0 -0 -0 -0 -0 -0 -0 -0 -0 -0 -203 -675 -0 -0 -0 -0 -0 -548 -358 -374 -461 -386 -315 -245 -216 -235 -178 -215 -145 -108
-0 -0 -0 -0 -0 -0 -0 -0 -187 -163 -239 -290 -372 -426 -455 -518 -0 -0 -0 -0 -0 -0 -0 -0 -0 -0 -0 -788 -681 -0 -2 -0 -0 -0 -0 -0 -0 -452 -417 -366 -359 -357 -275 -208 -212 -211 -137 -122 -151
-0 -0 -0 -0 -0 -0 -0 -0 -0 -0 -238 -276 -360 -411 -442 -53 -0 -0 -0 -0 -0 -0 -0 -0 -0 -117 -815 -760 -777 -680 -613 -150 -592 -115 -559 -570 -370 -39 -422 -418 -317 -248 -208 -177 -125 -155 -119 -141 -166
-0 -0 -0 -0 -0 -0 -0 -0 -0 -198 -241 -190 -249 -298 -268 -0 -0 -0 -0 -0 -0 -0 -0 -0 -0 -0 -716 -753 -734 -648 -574 -447 -358 -374 -370 -406 -437 -490 -525 -401 -333 -286 -232 -164 -139 -131 -109 -65 -177
-0 -0 -0 -0 -0 -0 -0 -0 -0 -193 -163 -167 -245 -249 -325 -442 -0 -0 -0 -606 -0 -342 -0 -0 -0 -316 -716 -645 -520 -423 -393 -333 -338 -182 -302 -338 -383 -361 -385 -389 -224 -160 -163 -162 -168 -225 -237 -200 -149
-0 -0 -0 -0 -0 -0 -0 -0 -0 -66 -177 -250 -335 -364 -422 -487 -503 -495 -430 -495 -536 -571 -492 -413 -349 -238 -165 -401 -353 -268 -197 -150 -80 -160 -271 -311 -316 -321 -288 -266 -208 -237 -236 -236 -290 -337 -407 -314 -230
-0 -0 -0 -0 -0 -0 -0 -0 -0 -61 -207 -320 -380 -355 -437 -465 -502 -501 -462 -493 -539 -541 -538 -552 -538 -460 -458 -421 -272 -167 -121 -178 -180 -183 -227 -249 -307 -435 -491 -496 -337 -298 -279 -0 -0 -0 -0 -0 -0
-0 -0 -0 -0 -0 -0 -0 -0 -0 -0 -297 -290 -409 -449 -493 -506 -528 -536 -544 -538 -523 -510 -460 -491 -529 -497 -448 -408 -383 -376 -346 -354 -354 -313 -274 -284 -336 -516 -0 -0 -0 -0 -0 -0 -0 -0 -0 -0 -0
-0 -0 -0 -0 -0 -0 -0 -0 -0 -332 -308 -347 -422 -464 -503 -556 -554 -549 -566 -584 -535 -497 -441 -460 -524 -498 -489 -384 -358 -364 -334 -297 -294 -315 -423 -447 -312 -0 -0 -0 -0 -0 -0 -0 -0 -0 -0 -0 -0
-0 -0 -0 -0 -0 -0 -0 -130 -181 -294 -325 -352 -342 -403 -396 -449 -466 -486 -558 -610 -525 -478 -465 -425 -410 -397 -414 -511 -458 -520 -468 -449 -471 -0 -0 -0 -0 -0 -0 -0 -0 -0 -0 -0 -0 -0 -0 -0 -0
-0 -0 -0 -0 -0 -0 -0 -109 -169 -184 -239 -301 -331 -335 -270 -225 -257 -358 -396 -461 -489 -500 -425 -399 -460 -156 -0 -0 -0 -0 -0 -0 -0 -0 -0 -0 -0 -0 -0 -0 -0 -0 -0 -0 -0 -0 -0 -0 -0
-0 -0 -0 -0 -0 -0 -0 -84 -286 -241 -299 -338 -314 -294 -316 -162 -87 -67 -353 -449 -724 -729 -635 -476 -442 -0 -0 -0 -0 -0 -0 -0 -0 -0 -0 -0 -0 -0 -0 -0 -0 -0 -0 -0 -0 -0 -0 -0 -0
-0 -0 -0 -0 -0 -0 -0 -135 -480 -268 -373 -374 -346 -424 -378 -239 -92 -183 -339 -440 -643 -611 -514 -409 -0 -0 -0 -0 -0 -0 -0 -0 -0 -0 -0 -0 -0 -0 -0 -0 -0 -0 -0 -0 -0 -0 -0 -0 -0
Wind_Speed
5 5 0 3 5 4 4 2 5 7 6 5 11 10 8 5 2 4 3 13 18 14 12 14 17 17 17 16 15 14 13 13 12 11 9 8 9 9 9 9 10 9 8 8 7 6 5 4 6
3 5 2 2 6 4 5 2 5 12 14 17 15 9 8 3 7 12 8 13 15 15 9 11 17 17 17 16 14 13 13 12 10 10 10 9 8 8 8 9 10 8 7 6 6 5 3 2 3
2 2 4 3 4 2 2 5 4 18 16 7 5 6 6 5 12 7 14 16 13 11 11 12 17 16 17 16 14 13 12 12 11 10 10 9 7 7 7 8 10 8 7 6 5 3 2 2 3
2 4 4 5 3 5 3 6 13 16 15 12 14 8 6 5 7 10 17 16 13 10 8 15 16 16 15 15 14 12 12 11 11 10 9 9 8 6 5 9 8 8 6 6 4 2 2 3 2
4 3 5 2 4 5 5 3 10 6 5 10 13 5 4 5 21 21 18 14 16 9 7 10 15 15 14 14 13 11 11 10 10 10 9 9 8 7 6 9 9 8 6 5 4 2 1 2 3
4 4 5 5 6 6 5 11 11 6 9 10 11 9 5 18 23 17 16 13 13 13 7 7 15 15 13 14 13 12 11 10 10 9 9 9 9 8 7 7 7 7 6 4 3 4 4 4 6
5 5 4 4 5 6 4 5 10 13 10 5 11 7 9 13 17 18 16 14 13 12 9 6 7 11 14 13 12 11 10 10 9 8 8 8 8 8 8 7 7 6 5 4 5 6 5 6 6
5 5 4 2 1 7 4 4 8 14 5 15 15 7 16 13 17 15 14 12 12 11 9 7 6 6 6 7 13 11 11 11 9 9 8 8 8 8 8 8 8 8 7 6 7 7 5 6 7
1 5 3 5 1 7 4 2 4 7 15 1 4 7 17 18 18 17 13 9 9 8 10 8 7 7 7 6 9 12 13 12 11 9 10 6 3 4 6 7 8 9 9 8 8 9 8 8 9
5 3 10 9 9 7 4 3 5 7 8 6 10 15 14 17 19 19 15 13 11 12 11 12 12 11 9 8 6 6 6 5 5 5 6 4 5 4 5 7 10 10 9 9 9 10 11 9 4
4 6 7 8 12 12 5 4 6 16 3 14 21 20 16 12 16 19 17 19 19 16 11 13 12 12 12 8 5 3 3 3 4 7 6 6 4 4 4 3 3 3 7 3 5 5 4 5 5
2 9 11 11 4 3 1 10 10 3 8 17 20 19 16 14 13 18 17 16 13 15 16 14 13 12 13 5 6 6 5 4 4 5 7 5 3 4 4 4 4 4 4 5 5 3 4 6 6
5 6 7 14 14 9 4 7 9 7 17 18 18 16 17 14 12 15 19 17 16 15 14 15 12 11 12 10 6 5 6 6 6 5 6 5 5 6 4 5 4 5 4 5 5 5 5 6 7
5 7 10 2 9 6 2 9 7 7 18 19 19 17 16 15 14 10 10 15 16 16 16 15 12 13 13 10 8 7 5 6 5 5 6 7 5 5 6 5 6 5 5 5 5 6 6 8 6
4 8 10 7 3 7 7 5 14 18 19 20 19 17 15 14 10 14 13 14 17 17 18 15 14 10 11 10 7 6 6 6 5 7 8 7 7 6 6 5 5 6 5 6 6 7 5 4 5
5 4 5 9 5 7 6 6 11 21 21 19 19 17 14 13 11 10 11 15 10 12 17 12 13 12 10 7 7 5 5 4 5 4 4 8 8 8 6 5 5 5 3 2 2 3 5 6 3
6 3 4 11 4 3 5 2 20 18 19 19 19 18 15 14 8 9 11 13 13 13 13 9 8 10 9 7 4 4 4 3 2 1 3 6 6 6 6 5 5 5 4 3 2 2 2 3 3
6 3 4 6 9 2 1 7 20 17 18 20 17 16 15 16 14 10 10 8 12 10 10 10 7 8 7 4 3 2 1 2 2 3 4 5 5 7 6 5 6 5 4 4 3 4 2 4 3
5 4 7 7 9 2 7 10 18 19 17 15 14 14 15 17 12 9 10 9 9 6 8 8 9 6 4 2 3 1 2 2 3 4 7 7 6 6 7 6 5 4 5 6 5 2 2 2 1
7 8 15 14 13 8 7 14 15 11 16 20 18 15 16 8 9 9 9 9 10 10 9 8 8 8 6 4 3 3 3 4 4 2 6 7 7 7 6 7 7 6 5 6 5 1 1 1 2
8 8 15 12 9 4 7 4 8 4 6 12 11 16 12 16 15 10 8 10 8 12 12 12 11 11 8 7 3 2 2 2 2 3 4 5 6 9 7 7 6 6 3 4 2 2 4 2 1
8 8 13 11 3 8 4 6 2 6 10 11 7 8 10 9 7 6 5 5 3 8 6 5 1 2 3 6 4 5 4 4 2 2 3 4 9 8 3 4 4 3 3 4 3 2 0 2 2
13 12 11 12 6 0 5 4 7 5 6 7 7 7 7 12 15 13 11 12 10 7 7 7 8 6 5 6 4 4 4 1 0 3 6 7 8 11 11 11 9 8 6 6 6 4 5 2 2
10 6 5 4 4 1 7 7 7 5 9 7 6 12 17 17 17 16 12 12 13 12 12 11 13 10 10 9 5 3 5 5 5 6 5 5 6 7 10 10 8 8 7 6 5 5 8 5 5
3 5 5 5 2 6 6 4 9 6 7 15 18 15 13 14 14 14 12 12 12 12 11 11 13 11 9 10 10 11 9 8 8 6 5 6 5 5 7 8 8 7 7 7 7 9 8 7 5
8 10 7 7 3 3 2 6 7 8 14 18 18 16 14 14 11 12 11 10 11 11 11 10 11 10 10 11 10 9 8 6 7 7 6 5 6 6 7 8 9 9 9 8 8 7 6 6 5
11 6 9 6 3 1 3 2 9 12 17 19 18 18 14 10 7 8 9 10 10 9 7 8 10 10 10 10 9 10 10 10 9 9 8 5 6 7 7 9 10 9 9 8 7 6 7 7 5
10 5 3 3 8 5 5 2 6 11 13 15 16 17 12 9 7 8 9 9 9 8 8 11 11 11 11 11 9 8 9 9 8 9 10 9 9 9 9 9 8 8 8 8 7 5 6 8 5
6 3 3 6 6 6 3 4 3 13 14 18 15 14 17 14 7 5 11 3 9 8 10 9 9 10 9 9 10 10 8 7 7 6 8 7 7 7 6 6 6 6 7 6 7 7 7 9 8
7 8 10 7 7 3 6 6 3 10 15 19 18 18 17 17 10 9 9 5 9 7 9 9 9 9 8 9 9 9 9 8 8 7 7 7 6 7 6 7 7 6 7 7 7 8 7 9 10
Wind_Direction
158 190 199 63 58 55 308 255 154 103 66 61 85 97 117 30 134 177 84 131 131 133 139 137 133 132 129 121 118 116 113 111 112 111 110 109 104 110 112 110 112 111 110 107 104 99 99 102 95
196 159 358 359 69 34 304 261 103 93 116 99 89 82 50 90 60 116 98 132 133 135 138 133 135 132 125 120 121 119 113 111 110 116 114 120 118 130 127 121 107 115 115 111 107 99 76 12 53
219 154 96 104 122 182 281 277 126 130 139 114 96 84 71 102 120 129 123 135 130 128 131 141 137 133 128 124 125 121 121 119 119 113 120 119 123 99 122 130 130 128 122 121 112 89 28 2 70
39 16 12 85 266 264 204 239 112 108 104 95 119 69 66 148 127 136 137 132 131 131 134 141 139 133 132 129 129 127 126 123 123 122 125 127 126 113 81 131 120 121 121 125 122 106 33 347 18
25 53 30 355 268 262 306 207 131 126 76 114 121 116 63 38 112 129 136 137 133 132 130 136 135 132 135 135 135 136 133 132 131 130 133 130 131 136 110 120 130 135 136 144 155 190 239 282 312
31 94 19 336 319 302 290 187 135 97 128 114 89 95 72 133 127 140 138 138 131 135 133 146 143 140 144 145 148 147 141 141 140 142 142 142 147 150 148 140 146 150 148 159 200 245 264 297 324
107 73 236 241 295 325 285 160 137 139 141 110 127 103 130 146 143 142 137 135 136 140 136 135 140 147 152 152 154 155 151 153 154 156 158 159 158 161 164 162 164 168 174 192 219 243 274 304 313
121 105 276 302 224 265 282 312 138 139 135 128 143 155 164 167 144 130 130 127 138 145 145 146 151 146 153 164 164 166 165 164 165 166 170 175 176 179 181 182 185 186 195 214 245 261 269 276 289
102 67 265 258 348 259 289 12 352 87 124 199 175 117 145 153 127 126 124 126 137 159 160 159 159 162 168 175 180 177 177 174 181 184 187 190 177 200 213 203 209 206 209 215 236 263 271 267 267
103 147 215 209 199 227 255 126 167 103 109 71 87 122 142 146 140 144 153 159 166 168 181 174 172 175 175 182 184 182 187 181 185 190 199 188 194 201 208 223 224 224 224 224 232 248 263 279 272
164 208 258 240 221 236 240 131 152 118 96 152 145 153 159 162 150 159 168 168 181 180 175 184 183 177 180 185 176 183 190 193 199 195 195 195 195 211 220 222 218 216 248 249 251 263 261 267 280
306 194 260 277 255 204 250 128 152 152 170 157 153 156 161 172 165 169 175 179 170 180 180 188 183 183 184 167 179 187 188 196 207 210 191 184 206 205 210 215 217 210 218 236 235 246 266 270 276
206 283 204 257 285 256 83 153 148 128 139 147 152 160 171 178 184 178 180 181 174 179 182 193 178 181 187 171 179 175 204 192 207 213 206 183 198 204 187 208 205 221 211 227 234 231 240 250 240
288 301 287 258 239 247 105 120 107 164 150 150 159 171 183 186 187 186 165 172 177 181 184 189 179 181 182 178 171 189 187 205 193 213 218 205 192 194 186 203 213 227 213 224 227 224 225 242 253
282 333 328 308 302 238 103 108 152 158 161 160 168 176 185 197 182 185 184 178 169 183 181 186 174 169 178 178 171 185 200 200 189 211 218 208 199 200 190 186 196 217 215 227 238 238 230 237 233
7 47 351 290 352 277 126 185 165 167 164 169 174 179 185 200 194 185 178 177 173 160 177 174 171 173 170 178 162 166 168 170 188 208 214 213 206 201 206 207 216 233 259 241 220 222 231 230 247
357 231 245 311 200 274 114 164 177 179 170 175 179 181 183 195 207 193 184 176 172 169 169 174 170 170 173 167 166 177 181 171 191 211 213 229 224 224 202 208 222 223 235 247 241 276 221 289 291
232 272 280 242 283 15 227 223 172 188 176 181 180 180 181 186 201 191 183 167 173 169 167 168 169 169 166 132 110 72 62 271 255 247 237 232 228 220 212 234 227 217 231 254 238 226 203 220 239
254 260 266 273 279 295 228 198 190 182 188 177 176 180 186 192 192 176 179 155 152 146 149 160 154 177 138 115 110 64 229 259 280 260 261 256 236 228 211 224 230 220 215 232 244 241 255 298 127
242 257 269 284 263 178 244 218 217 176 188 178 177 188 187 169 171 181 167 149 161 168 177 167 173 169 181 163 164 161 171 224 232 252 270 254 251 228 218 217 219 216 224 242 261 217 266 229 179
252 226 261 240 303 260 256 268 159 183 145 176 186 189 181 181 176 179 172 167 157 173 181 186 187 183 185 178 114 68 35 357 324 280 280 321 284 258 219 215 202 223 217 227 229 221 186 225 249
255 215 253 268 249 259 96 239 305 189 149 169 147 174 178 171 126 86 89 86 182 196 189 193 169 129 132 149 152 161 181 211 283 23 72 26 24 15 297 205 172 149 111 82 74 63 340 132 232
246 265 242 256 213 177 304 57 237 157 144 139 148 110 85 103 93 81 74 84 60 99 105 93 84 94 112 168 182 175 188 214 186 69 58 35 37 28 44 57 43 61 58 55 53 77 70 33 99
251 304 274 50 121 39 252 153 271 200 172 153 134 103 100 98 94 83 72 76 67 68 73 81 83 69 67 74 77 102 98 83 82 70 64 46 46 38 36 49 52 56 54 53 63 62 58 51 61
227 77 297 302 1 205 258 136 233 195 160 153 128 109 98 89 85 89 84 78 73 66 71 75 77 72 72 73 73 75 79 80 78 75 77 66 50 42 32 42 52 59 57 60 63 60 59 51 59
226 175 190 197 240 233 236 235 260 308 129 103 100 100 93 87 88 89 84 78 74 71 71 78 78 70 58 61 62 59 61 75 77 68 69 61 60 51 54 63 68 71 70 64 64 66 64 58 54
270 206 198 155 207 72 227 210 44 80 94 98 101 93 78 73 84 100 94 89 85 78 72 91 88 80 76 69 66 62 66 66 75 72 72 68 83 81 69 73 74 63 63 61 56 59 56 57 42
199 196 188 348 173 217 276 229 161 118 108 100 96 94 89 67 46 71 60 84 85 82 76 69 71 73 74 71 66 67 70 78 81 91 87 82 81 79 72 69 68 64 61 62 65 58 49 60 35
302 238 77 120 147 186 172 240 355 149 135 117 117 117 111 106 98 287 82 45 88 82 78 76 78 79 74 79 81 76 72 68 76 75 80 83 84 80 79 78 78 83 82 72 74 68 60 63 48
205 257 161 149 226 240 158 238 358 157 134 130 135 128 137 144 141 160 130 151 97 84 100 91 82 87 80 80 80 82 85 81 80 68 62 61 55 47 47 51 54 50 69 71 70 69 65 66 57